Weather in Raevskaja

Russia / Krasnodar Krai     44°50′10″N   37°32′58″E
temp.,
°C
wind,
m/s
gust,
m/s
humid.,
%
clouds,
%
prec.,
mm/h
press.,
hPa
HPBL,
m
7 may, fri
fri700:00+10wnw11630 0.0 101411
03:00+10nw117611 0.0 101413
06:00+11se11745 0.0 101611
09:00+15sse22625 0.0 1017400
12:00+17sse456212 0.0 1017572
15:00+17sse446575 0.0 1018510
18:00+15se457370 0.0 1017295
21:00+12se45915 0.0 101885
8 may, sat
sat800:00+12se469186 0.0 1017122
03:00+11se4692100 0.0 1015130
06:00+12se4789100 0.0 1015201
09:00+15se5869100 0.0 1014344
12:00+17se5859100 0.0 1013379
15:00+19se58520 0.0 1012431
18:00+16se46665 0.0 1011174
21:00+13s4487100 0.0 101272
9 may, sun
sun900:00+13ese1297100 1.1 101161
03:00+12nnw101395100 3.5 1012963
06:00+9nnw81392100 1.5 1015937
09:00+9nnw71078100 9.7 10171196
12:00+11nnw7106798 0.1 10201456
15:00+11nnw8106045 0.1 10221616
18:00+12nnw610585 0.0 10231651
21:00+9nw48665 0.0 1024303
10 may, mon
mon1000:00+9nnw38665 0.1 1024264
03:00+8nnw37665 0.1 1024254
06:00+8nnw37674 0.0 1025273
09:00+12nw67513 0.1 10241891
12:00+12nw785385 0.3 10231818
15:00+13nw8851100 0.3 10231805
18:00+11nw5757100 0.0 1022859
21:00+10w2564100 0.2 1021337
11 may, tue
tue1100:00+9sw81180100 1.3 1019829
03:00+10w71184100 2.8 1017817
06:00+9wsw81188100 2.0 1016720
09:00+10sw101293100 7.1 1015888
12:00+10ssw101489100 4.8 10141009
15:00+10sw91288100 7.8 1013852
18:00+11ssw81193100 4.8 1012694
21:00+11ssw101396100 13.9 1013924